Location: Colonia Mina de C?rbuni
(46.1667°N, 22.7167°E)
Time: 18:36:48
(UTC+00:00)

Transit 2A - Visible Passes

Search period start: 23 April 2024 00:00
Search period end: 03 May 2024 00:00
Orbit: 596 x 956 km, 66.7° (Epoch: 23 April)

Date Brightness Start Highest point End Pass type
(mag) Time Alt. Az. Time Alt. Az. Time Alt. Az.
24 Apr 8.5 02:33:54 10° SE 02:35:30 12° ESE 02:37:07 10° E visible
27 Apr 7.5 02:28:52 10° S 02:32:36 28° ESE 02:36:36 10° NE visible
28 Apr 8.0 01:54:40 10° SSE 01:57:42 18° ESE 02:00:53 10° ENE visible
29 Apr 8.3 01:21:18 10° ESE 01:22:52 12° ESE 01:24:28 10° E visible
30 Apr 6.0 02:25:34 10° SSW 02:29:57 65° ESE 02:34:44 10° NE visible
01 May 6.7 01:50:47 10° S 01:54:55 42° ESE 01:59:25 10° NE visible
02 May 7.3 01:16:47 13° SSE 01:19:56 27° ESE 01:23:58 10° NE visible
